| time (UTC) | temp F | wind direction | speed MPH | gust MPH | rain 1hr in | rain 24hr in | rain mn in | humidity % | barometer mb |
| 20260505080506 | 85 | 350 | 4.0 | 9.0 | 0.00 | 0.00 | 0.00 | 78 | 1006.2 |
| 20260505080000 | 85 | 333 | 4.0 | 11.0 | 0.00 | 0.00 | 0.00 | 78 | 1006.2 |
| 20260505075454 | 85 | 77 | 5.0 | 11.0 | 0.00 | 0.00 | 0.00 | 78 | 1006.2 |
| 20260505075214 | 85 | 48 | 5.0 | 11.0 | 0.00 | 0.00 | 0.00 | 80 | 1006.2 |
| 20260505074442 | 85 | 83 | 6.0 | 12.0 | 0.00 | 0.00 | 0.00 | 79 | 1006.2 |
| 20260505073936 | 85 | 23 | 6.0 | 13.0 | 0.00 | 0.00 | 0.00 | 78 | 1006.3 |
| 20260505073432 | 85 | 82 | 6.0 | 13.0 | 0.00 | 0.00 | 0.00 | 78 | 1006.2 |
| 20260505072924 | 85 | 26 | 6.0 | 11.0 | 0.00 | 0.00 | 0.00 | 78 | 1006.4 |
| 20260505072418 | 84 | 17 | 7.0 | 11.0 | 0.00 | 0.00 | 0.00 | 79 | 1006.3 |
| 20260505071912 | 84 | 339 | 6.0 | 11.0 | 0.00 | 0.00 | 0.00 | 76 | 1006.3 |
| 20260505071406 | 85 | 63 | 6.0 | 11.0 | 0.00 | 0.00 | 0.00 | 77 | 1006.3 |
| 20260505070900 | 84 | 341 | 6.0 | 13.0 | 0.00 | 0.00 | 0.00 | 78 | 1006.4 |
| 20260505070354 | 84 | 11 | 6.0 | 13.0 | 0.00 | 0.00 | 0.00 | 78 | 1006.6 |
| 20260505065849 | 85 | 27 | 5.0 | 12.0 | 0.00 | 0.00 | 0.00 | 77 | 1006.5 |
| 20260505065342 | 85 | 340 | 4.0 | 9.0 | 0.00 | 0.00 | 0.00 | 79 | 1006.5 |
| 20260505064836 | 85 | 68 | 5.0 | 9.0 | 0.00 | 0.00 | 0.00 | 81 | 1006.6 |
| 20260505064330 | 85 | 15 | 5.0 | 9.0 | 0.00 | 0.00 | 0.00 | 79 | 1006.7 |
| 20260505063824 | 84 | 39 | 5.0 | 10.0 | 0.00 | 0.00 | 0.00 | 81 | 1006.7 |
| 20260505063319 | 84 | 42 | 6.0 | 11.0 | 0.00 | 0.00 | 0.00 | 80 | 1006.7 |
| 20260505062813 | 83 | 16 | 6.0 | 11.0 | 0.00 | 0.00 | 0.00 | 81 | 1006.7 |
| 20260505062311 | 83 | 13 | 5.0 | 11.0 | 0.00 | 0.00 | 0.00 | 80 | 1006.7 |
| 20260505062031 | 83 | 4 | 5.0 | 11.0 | 0.00 | 0.00 | 0.00 | 82 | 1006.8 |
| 20260505061531 | 83 | 48 | 6.0 | 13.0 | 0.00 | 0.00 | 0.00 | 81 | 1006.8 |
| 20260505061032 | 83 | 33 | 5.0 | 13.0 | 0.00 | 0.00 | 0.00 | 82 | 1006.8 |
| 20260505060309 | 83 | 44 | 5.0 | 11.0 | 0.00 | 0.00 | 0.00 | 82 | 1006.9 |
| 20260505055808 | 83 | 347 | 5.0 | 12.0 | 0.00 | 0.00 | 0.00 | 82 | 1007.0 |
| 20260505055309 | 84 | 50 | 5.0 | 12.0 | 0.00 | 0.00 | 0.00 | 81 | 1007.0 |
| 20260505054807 | 84 | 359 | 6.0 | 12.0 | 0.00 | 0.00 | 0.00 | 81 | 1007.0 |
| 20260505054306 | 84 | 10 | 6.0 | 12.0 | 0.00 | 0.00 | 0.00 | 81 | 1007.1 |
| 20260505053807 | 84 | 52 | 6.0 | 12.0 | 0.00 | 0.00 | 0.00 | 80 | 1007.1 |
| 20260505053305 | 84 | 68 | 6.0 | 12.0 | 0.00 | 0.00 | 0.00 | 81 | 1007.1 |
| 20260505052804 | 84 | 23 | 6.0 | 13.0 | 0.00 | 0.00 | 0.00 | 80 | 1007.1 |
| 20260505052305 | 84 | 31 | 6.0 | 13.0 | 0.00 | 0.00 | 0.00 | 80 | 1007.2 |
| 20260505051804 | 84 | 30 | 6.0 | 12.0 | 0.00 | 0.00 | 0.00 | 81 | 1007.4 |
| 20260505051305 | 83 | 359 | 5.0 | 12.0 | 0.00 | 0.00 | 0.00 | 83 | 1007.4 |
| 20260505050805 | 83 | 359 | 6.0 | 12.0 | 0.00 | 0.00 | 0.00 | 82 | 1007.5 |
| 20260505050305 | 83 | 73 | 7.0 | 12.0 | 0.00 | 0.00 | 0.00 | 82 | 1007.5 |
| 20260505041220 | 84 | 8 | 7.0 | 14.0 | 0.00 | 0.00 | 0.00 | 80 | 1008.0 |
| 20260505041205 | 85 | 28 | 6.0 | 14.0 | 0.00 | 0.00 | 0.00 | 80 | 1008.1 |
| 20260505040220 | 85 | 30 | 5.0 | 14.0 | 0.00 | 0.00 | 0.00 | 79 | 1008.0 |
| 20260505035720 | 85 | 359 | 5.0 | 12.0 | 0.00 | 0.00 | 0.00 | 80 | 1008.1 |
| 20260505035220 | 84 | 330 | 7.0 | 13.0 | 0.00 | 0.00 | 0.00 | 83 | 1008.1 |
| 20260505034722 | 83 | 4 | 8.0 | 15.0 | 0.00 | 0.00 | 0.00 | 82 | 1008.3 |
| 20260505034221 | 84 | 354 | 7.0 | 15.0 | 0.00 | 0.00 | 0.00 | 82 | 1008.2 |
| 20260505033720 | 84 | 31 | 6.0 | 14.0 | 0.00 | 0.00 | 0.00 | 81 | 1008.3 |
| 20260505033225 | 84 | 64 | 6.0 | 13.0 | 0.00 | 0.00 | 0.00 | 81 | 1008.4 |
| 20260505032720 | 84 | 23 | 7.0 | 13.0 | 0.00 | 0.00 | 0.00 | 82 | 1008.3 |
| 20260505032221 | 84 | 345 | 8.0 | 13.0 | 0.00 | 0.00 | 0.00 | 82 | 1008.4 |
| 20260505031720 | 83 | 8 | 9.0 | 15.0 | 0.00 | 0.00 | 0.00 | 83 | 1008.5 |
| 20260505031220 | 83 | 359 | 9.0 | 15.0 | 0.00 | 0.00 | 0.00 | 82 | 1008.6 |
| 20260505030721 | 83 | 334 | 8.0 | 15.0 | 0.00 | 0.00 | 0.00 | 83 | 1008.6 |
| 20260505030223 | 83 | 42 | 7.0 | 13.0 | 0.00 | 0.00 | 0.00 | 82 | 1008.7 |
| 20260505025718 | 83 | 8 | 8.0 | 12.0 | 0.00 | 0.00 | 0.00 | 82 | 1008.7 |
| 20260505025441 | 83 | 359 | 7.0 | 12.0 | 0.00 | 0.00 | 0.00 | 84 | 1008.8 |
| 20260505024718 | 83 | 16 | 7.0 | 12.0 | 0.00 | 0.00 | 0.00 | 83 | 1008.9 |
| 20260505024224 | 83 | 354 | 8.0 | 14.0 | 0.00 | 0.00 | 0.00 | 83 | 1008.8 |
| 20260505023718 | 83 | 18 | 8.0 | 14.0 | 0.00 | 0.00 | 0.00 | 83 | 1008.7 |
| 20260505023440 | 83 | 345 | 8.0 | 14.0 | 0.00 | 0.00 | 0.00 | 83 | 1008.8 |
| 20260505022719 | 83 | 24 | 7.0 | 13.0 | 0.00 | 0.00 | 0.00 | 83 | 1008.8 |
| 20260505022218 | 83 | 9 | 6.0 | 12.0 | 0.00 | 0.00 | 0.00 | 82 | 1008.8 |
| 20260505021944 | 83 | 359 | 6.0 | 12.0 | 0.00 | 0.00 | 0.00 | 83 | 1008.9 |
| 20260505021218 | 83 | 8 | 5.0 | 12.0 | 0.00 | 0.00 | 0.00 | 83 | 1008.9 |
| 20260505020718 | 83 | 350 | 5.0 | 12.0 | 0.00 | 0.00 | 0.00 | 82 | 1008.9 |
| 20260505020216 | 83 | 21 | 6.0 | 12.0 | 0.00 | 0.00 | 0.00 | 84 | 1008.9 |
| 20260505015716 | 82 | 4 | 7.0 | 12.0 | 0.00 | 0.00 | 0.00 | 84 | 1009.0 |
| 20260505015216 | 83 | 23 | 5.0 | 12.0 | 0.00 | 0.00 | 0.00 | 84 | 1009.1 |
| 20260505014716 | 83 | 341 | 4.0 | 12.0 | 0.00 | 0.00 | 0.00 | 86 | 1009.2 |
| 20260505014216 | 82 | 25 | 5.0 | 9.0 | 0.00 | 0.00 | 0.00 | 86 | 1009.1 |
| 20260505013716 | 82 | 28 | 5.0 | 10.0 | 0.00 | 0.00 | 0.00 | 84 | 1009.1 |
| 20260505013220 | 82 | 25 | 5.0 | 11.0 | 0.00 | 0.00 | 0.00 | 85 | 1009.1 |
| 20260505012715 | 83 | 45 | 5.0 | 11.0 | 0.00 | 0.00 | 0.00 | 85 | 1009.1 |
| 20260505012209 | 83 | 340 | 5.0 | 10.0 | 0.00 | 0.00 | 0.00 | 85 | 1009.2 |
| 20260505011703 | 83 | 20 | 4.0 | 10.0 | 0.00 | 0.00 | 0.00 | 83 | 1009.2 |
| 20260505011157 | 83 | 28 | 3.0 | 10.0 | 0.00 | 0.00 | 0.00 | 84 | 1009.2 |
| 20260505010651 | 84 | 54 | 1.0 | 5.0 | 0.00 | 0.00 | 0.00 | 83 | 1009.3 |
| 20260505010145 | 83 | 359 | 1.0 | 5.0 | 0.00 | 0.00 | 0.00 | 84 | 1009.3 |
| 20260505005641 | 83 | 192 | 1.0 | 5.0 | 0.00 | 0.00 | 0.00 | 83 | 1009.3 |
| 20260505005132 | 83 | 359 | 1.0 | 3.0 | 0.00 | 0.00 | 0.00 | 87 | 1009.4 |
| 20260505004626 | 82 | 160 | 0.0 | 3.0 | 0.00 | 0.00 | 0.00 | 87 | 1009.5 |
| 20260505004120 | 82 | 359 | 0.0 | 4.0 | 0.00 | 0.00 | 0.00 | 87 | 1009.5 |
| 20260505003616 | 82 | 123 | 1.0 | 4.0 | 0.00 | 0.00 | 0.00 | 86 | 1009.3 |
| 20260505003109 | 82 | 135 | 1.0 | 4.0 | 0.00 | 0.00 | 0.00 | 85 | 1009.3 |
| 20260505002823 | 82 | 112 | 0.0 | 3.0 | 0.00 | 0.00 | 0.00 | 86 | 1009.4 |
| 20260505002058 | 82 | 277 | 0.0 | 3.0 | 0.00 | 0.00 | 0.00 | 87 | 1009.5 |
| 20260505001813 | 82 | 314 | 0.0 | 3.0 | 0.00 | 0.00 | 0.00 | 87 | 1009.4 |
| 20260505001045 | 82 | 283 | 0.0 | 0.0 | 0.00 | 0.00 | 0.00 | 87 | 1009.5 |
| 20260505000539 | 82 | 264 | 0.0 | 0.0 | 0.00 | 0.00 | 0.00 | 86 | 1009.5 |
| 20260505000036 | 82 | 265 | 0.0 | 0.0 | 0.00 | 0.00 | 0.00 | 87 | 1009.4 |
| 20260504235526 | 82 | 161 | 0.0 | 0.0 | 0.00 | 0.00 | 0.00 | 88 | 1009.4 |
| 20260504235020 | 81 | 160 | 0.0 | 0.0 | 0.00 | 0.00 | 0.00 | 88 | 1009.3 |
| 20260504234515 | 81 | 161 | 0.0 | 0.0 | 0.00 | 0.00 | 0.00 | 88 | 1009.4 |
| 20260504234009 | 81 | 162 | 0.0 | 0.0 | 0.00 | 0.00 | 0.00 | 88 | 1009.4 |
| 20260504233504 | 81 | 163 | 0.0 | 0.0 | 0.00 | 0.00 | 0.00 | 88 | 1009.2 |
| 20260504233002 | 81 | 161 | 0.0 | 1.0 | 0.00 | 0.00 | 0.00 | 87 | 1009.2 |
| 20260504232711 | 81 | 162 | 0.0 | 1.0 | 0.00 | 0.00 | 0.00 | 88 | 1009.2 |
| 20260504231945 | 81 | 162 | 0.0 | 0.0 | 0.00 | 0.00 | 0.00 | 88 | 1009.1 |
| 20260504231438 | 81 | 162 | 0.0 | 0.0 | 0.00 | 0.00 | 0.00 | 88 | 1009.1 |
| 20260504230935 | 80 | 160 | 0.0 | 0.0 | 0.00 | 0.00 | 0.00 | 88 | 1009.0 |
| 20260504230909 | 80 | 162 | 0.0 | 0.0 | 0.00 | 0.04 | 0.00 | 89 | 1008.9 |
| 20260504225920 | 79 | 185 | 0.0 | 0.0 | 0.00 | 0.07 | 0.00 | 90 | 1009.0 |
| 20260504225415 | 78 | 185 | 0.0 | 0.0 | 0.00 | 0.09 | 0.00 | 90 | 1008.9 |
| 20260504225134 | 78 | 197 | 0.0 | 2.0 | 0.00 | 0.10 | 0.00 | 90 | 1008.9 |
| 20260504224403 | 78 | 199 | 0.0 | 2.0 | 0.00 | 0.13 | 0.00 | 90 | 1008.8 |
| 20260504223857 | 77 | 241 | 0.0 | 2.0 | 0.00 | 0.36 | 0.00 | 90 | 1008.8 |
| 20260504223351 | 77 | 197 | 0.0 | 3.0 | 0.00 | 0.57 | 0.00 | 90 | 1008.7 |
| 20260504222339 | 77 | 207 | 0.0 | 2.0 | 0.00 | 0.57 | 0.00 | 91 | 1008.7 |
| 20260504221832 | 77 | 226 | 0.0 | 0.0 | 0.00 | 0.58 | 0.00 | 91 | 1008.7 |
| 20260504221326 | 76 | 222 | 0.0 | 0.0 | 0.00 | 0.58 | 0.00 | 91 | 1008.6 |
| 20260504220821 | 76 | 218 | 0.0 | 0.0 | 0.00 | 0.58 | 0.00 | 91 | 1008.6 |
| 20260504220314 | 76 | 217 | 0.0 | 0.0 | 0.00 | 0.60 | 0.00 | 91 | 1008.6 |
| 20260504215809 | 76 | 359 | 0.0 | 0.0 | 0.00 | 0.61 | 0.00 | 91 | 1008.6 |
| 20260504214757 | 76 | 202 | 0.0 | 6.0 | 0.00 | 0.70 | 0.00 | 91 | 1008.5 |
| 20260504214511 | 76 | 193 | 0.0 | 5.0 | 0.00 | 0.96 | 0.00 | 91 | 1008.5 |
| 20260504213750 | 76 | 212 | 0.0 | 3.0 | 0.00 | 1.10 | 0.00 | 91 | 1008.5 |
| 20260504213731 | 76 | 208 | 0.0 | 3.0 | 0.00 | 1.33 | 0.00 | 92 | 1008.5 |
| 20260504212749 | 75 | 197 | 1.0 | 5.0 | 0.00 | 1.40 | 0.00 | 91 | 1008.4 |
| 20260504212509 | 76 | 229 | 1.0 | 7.0 | 0.00 | 1.46 | 0.00 | 91 | 1008.5 |
| 20260504211749 | 76 | 208 | 0.0 | 7.0 | 0.00 | 1.50 | 0.00 | 91 | 1008.5 |
| 20260504211248 | 76 | 241 | 1.0 | 6.0 | 0.00 | 1.73 | 0.00 | 91 | 1008.3 |
| 20260504210745 | 76 | 207 | 1.0 | 4.0 | 0.00 | 2.11 | 0.00 | 91 | 1008.3 |
| 20260504210245 | 76 | 224 | 1.0 | 4.0 | 0.00 | 2.20 | 0.00 | 91 | 1008.2 |
| 20260504205746 | 76 | 224 | 1.0 | 4.0 | 0.00 | 2.23 | 0.00 | 91 | 1008.1 |
| 20260504205243 | 76 | 215 | 1.0 | 4.0 | 0.00 | 2.24 | 0.00 | 91 | 1008.1 |
| 20260504204745 | 76 | 210 | 1.0 | 5.0 | 0.00 | 2.24 | 0.00 | 91 | 1008.1 |
| 20260504204243 | 76 | 215 | 1.0 | 5.0 | 0.00 | 2.24 | 0.00 | 91 | 1008.1 |
| 20260504203743 | 76 | 208 | 1.0 | 5.0 | 0.00 | 2.24 | 0.00 | 91 | 1008.0 |
| 20260504203243 | 76 | 223 | 2.0 | 4.0 | 0.00 | 2.24 | 0.00 | 91 | 1008.0 |
| 20260504202743 | 76 | 213 | 3.0 | 5.0 | 0.00 | 2.24 | 0.00 | 91 | 1007.9 |
| 20260504202244 | 77 | 232 | 4.0 | 5.0 | 0.00 | 2.24 | 0.00 | 90 | 1007.8 |
| 20260504201743 | 77 | 245 | 3.0 | 5.0 | 0.00 | 2.24 | 0.00 | 89 | 1007.8 |
| 20260504201238 | 78 | 237 | 2.0 | 4.0 | 0.00 | 2.24 | 0.00 | 89 | 1007.9 |
| 20260504200731 | 78 | 211 | 2.0 | 4.0 | 0.00 | 2.24 | 0.00 | 89 | 1007.8 |
| 20260504200225 | 78 | 212 | 1.0 | 4.0 | 0.00 | 2.24 | 0.00 | 89 | 1007.9 |
| 20260504195718 | 78 | 190 | 0.0 | 0.0 | 0.00 | 2.24 | 0.00 | 89 | 1007.8 |
| 20260504195217 | 78 | 189 | 0.0 | 0.0 | 0.00 | 2.24 | 0.00 | 89 | 1007.9 |
| 20260504194718 | 78 | 192 | 0.0 | 0.0 | 0.00 | 2.24 | 0.00 | 90 | 1008.0 |
| 20260504194215 | 78 | 190 | 0.0 | 0.0 | 0.00 | 2.24 | 0.00 | 90 | 1007.9 |
| 20260504193717 | 78 | 190 | 0.0 | 0.0 | 0.00 | 2.24 | 0.00 | 90 | 1007.9 |
| 20260504193215 | 78 | 191 | 0.0 | 2.0 | 0.00 | 2.24 | 0.00 | 90 | 1008.0 |
| 20260504192935 | 78 | 187 | 1.0 | 4.0 | 0.00 | 2.24 | 0.00 | 90 | 1008.0 |
| 20260504192435 | 78 | 212 | 1.0 | 4.0 | 0.00 | 2.24 | 0.00 | 90 | 1008.1 |
| 20260504191715 | 78 | 359 | 2.0 | 4.0 | 0.00 | 2.24 | 0.00 | 90 | 1008.1 |
| 20260504191216 | 78 | 216 | 2.0 | 4.0 | 0.00 | 2.24 | 0.00 | 89 | 1008.2 |
| 20260504190715 | 78 | 209 | 1.0 | 4.0 | 0.00 | 2.24 | 0.00 | 89 | 1008.2 |
| 20260504190215 | 78 | 221 | 0.0 | 4.0 | 0.00 | 2.24 | 0.00 | 89 | 1008.3 |
| 20260504185943 | 78 | 229 | 0.0 | 0.0 | 0.00 | 2.24 | 0.00 | 90 | 1008.2 |
| 20260504185215 | 78 | 226 | 0.0 | 3.0 | 0.00 | 2.24 | 0.00 | 90 | 1008.2 |
| 20260504184720 | 78 | 359 | 1.0 | 3.0 | 0.00 | 2.24 | 0.00 | 90 | 1008.2 |
| 20260504184215 | 78 | 226 | 2.0 | 4.0 | 0.00 | 2.24 | 0.00 | 90 | 1008.3 |
| 20260504183718 | 78 | 359 | 2.0 | 5.0 | 0.00 | 2.24 | 0.00 | 90 | 1008.4 |
| 20260504183215 | 77 | 359 | 2.0 | 5.0 | 0.00 | 2.24 | 0.00 | 90 | 1008.4 |
| 20260504182714 | 77 | 216 | 2.0 | 5.0 | 0.00 | 2.24 | 0.00 | 90 | 1008.4 |
| 20260504182441 | 78 | 222 | 2.0 | 5.0 | 0.00 | 2.24 | 0.00 | 89 | 1008.4 |
| 20260504181716 | 78 | 220 | 1.0 | 5.0 | 0.00 | 2.24 | 0.00 | 88 | 1008.4 |
| 20260504181215 | 79 | 186 | 0.0 | 2.0 | 0.00 | 2.24 | 0.00 | 89 | 1008.3 |
| 20260504180715 | 79 | 186 | 0.0 | 2.0 | 0.00 | 2.24 | 0.00 | 89 | 1008.5 |
| 20260504180710 | 79 | 186 | 0.0 | 1.0 | 0.00 | 2.24 | 0.00 | 89 | 1008.5 |
| 20260504175715 | 79 | 184 | 0.0 | 2.0 | 0.00 | 2.24 | 0.00 | 89 | 1008.5 |
| 20260504175215 | 79 | 185 | 0.0 | 2.0 | 0.00 | 2.24 | 0.00 | 89 | 1008.5 |
| 20260504174715 | 79 | 186 | 0.0 | 2.0 | 0.00 | 2.24 | 0.00 | 89 | 1008.6 |
| 20260504174214 | 79 | 204 | 0.0 | 0.0 | 0.00 | 2.24 | 0.00 | 89 | 1008.7 |
| 20260504173715 | 79 | 167 | 1.0 | 4.0 | 0.00 | 2.24 | 0.00 | 89 | 1008.8 |
| 20260504173216 | 79 | 148 | 2.0 | 4.0 | 0.00 | 2.24 | 0.00 | 89 | 1008.7 |
| 20260504172931 | 79 | 166 | 3.0 | 4.0 | 0.00 | 2.24 | 0.00 | 89 | 1008.7 |
| 20260504172213 | 79 | 136 | 2.0 | 5.0 | 0.00 | 2.24 | 0.00 | 89 | 1008.8 |
| 20260504171713 | 79 | 145 | 1.0 | 5.0 | 0.00 | 2.24 | 0.00 | 89 | 1009.0 |
| 20260504171430 | 79 | 178 | 2.0 | 4.0 | 0.00 | 2.24 | 0.00 | 89 | 1009.1 |
| 20260504170719 | 78 | 204 | 2.0 | 4.0 | 0.00 | 2.24 | 0.00 | 89 | 1009.1 |
| 20260504170213 | 79 | 183 | 2.0 | 4.0 | 0.00 | 2.24 | 0.00 | 88 | 1009.2 |
| 20260504151001 | 80 | 195 | 1.0 | 4.0 | 0.00 | 2.24 | 2.24 | 85 | 1009.9 |
| 20260504150455 | 80 | 166 | 1.0 | 4.0 | 0.00 | 2.24 | 2.24 | 85 | 1009.9 |
| 20260504141113 | 78 | 197 | 2.0 | 4.0 | 0.00 | 2.28 | 2.24 | 86 | 1009.8 |
| 20260504140343 | 78 | 200 | 2.0 | 7.0 | 0.00 | 2.28 | 2.24 | 86 | 1009.8 |
| 20260504130739 | 79 | 247 | 1.0 | 4.0 | 0.00 | 2.34 | 2.24 | 88 | 1009.3 |
| 20260504130452 | 79 | 226 | 1.0 | 3.0 | 0.00 | 2.34 | 2.24 | 88 | 1009.4 |
| 20260504120119 | 80 | 212 | 2.0 | 4.0 | 0.00 | 2.34 | 2.24 | 87 | 1009.1 |
| 20260504110540 | 80 | 9 | 1.0 | 3.0 | 0.00 | 2.35 | 2.24 | 87 | 1008.8 |
| 20260504100535 | 81 | 25 | 2.0 | 3.0 | 0.00 | 2.35 | 2.24 | 86 | 1008.1 |
| 20260504081956 | 84 | 38 | 7.0 | 12.0 | 0.00 | 2.35 | 2.24 | 80 | 1007.4 |
| 20260504081444 | 84 | 28 | 7.0 | 12.0 | 0.00 | 2.35 | 2.24 | 78 | 1007.3 |
| 20260504080941 | 84 | 56 | 6.0 | 12.0 | 0.00 | 2.35 | 2.24 | 79 | 1007.3 |